Location: Zagreb
(45.8000°N, 16.0000°E)
Time: 11:50:40
(UTC+01:00)

Vanguard 1 Rocket - Pass Details

Date: 04 October 2020
Orbit: 656 x 4221 km, 34.3° (Epoch: 28 October)

Event Time Altitude Azimuth Distance (km) Brightness Sun altitude
Rises 23:11:28 0° 277° (W) 6,517 12.2 -44.3°
Reaches altitude 10° 23:15:48 10° 269° (W) 5,938 11.7 -44.7°
Enters shadow 23:31:58 34° 216° (SW) 5,281 10.9 -46.1°
Maximum altitude 23:32:42 35° 214° (SSW) 5,308 - -46.1°
Drops below altitude 10° 23:53:59 10° 159° (SSE) 7,326 - -47.6°
Sets 00:00:22 0° 152° (SSE) 8,143 - -47.9°
